AirNav   Everest Fuels
 
 1056 users online  

MU01 Dogwood Canyon Heliport
Blue Eye, Missouri, USA

GOING TO BLUE EYE?


FAA INFORMATION EFFECTIVE 16 JULY 2020

Location

FAA Identifier: MU01
Lat/Long: 36-29-57.2360N 093-27-30.6690W
36-29.953933N 093-27.511150W
36.4992322,-93.4585192
(estimated)
Elevation: 1240 ft. / 378 m (estimated)
Variation: 04E (1990)
From city: 7 miles W of BLUE EYE, MO
Time zone: UTC -5 (UTC -6 during Standard Time)
Zip code: 65681

Heliport Operations

Heliport use: Private use. Permission required prior to landing
Activation date: 10/1993
Control tower: no
ARTCC: KANSAS CITY CENTER
FSS: COLUMBIA FLIGHT SERVICE STATION
Attendance: UNATNDD
Segmented circle: no

Heliport Communications

WX AWOS-3 at FWB (12 nm N): 119.725 (417-272-3922)
WX AWOS-3 at BBG (13 nm E): 124.625 (417-334-0218)

Nearby radio navigation aids

VOR radial/distance  VOR name  Freq  Var
HROr309/16.1HARRISON VOR/DME112.5004E
RZCr061/35.4RAZORBACK VORTAC116.4004E

Heliport Services

Runway Information

Helipad H1

Dimensions: 60 x 60 ft. / 18 x 18 m
Surface: turf
Traffic pattern: leftleft

Heliport Ownership and Management from official FAA records

Ownership: Privately-owned
Owner: FINLEY RIVER PROPERTIES, INC.
1935 S CAMPBELL
SPRINGFIELD, MO 65898
Phone 417-887-1915
Manager: SUSIE HENRY
1935 S CAMPBELL
SPRINGFIELD, MO 65898
Phone 417-887-1915

Additional Remarks

FOR CD CTC SPRINGFIELD APCH AT 417-868-5620/5619.

Instrument Procedures

There are no published instrument procedures at MU01.

Some nearby airports with instrument procedures:

4M1 - Carroll County Airport (11 nm SW)
KFWB - Branson West Municipal Airport - Emerson Field (12 nm N)
KBBG - Branson Airport (13 nm E)
KPLK - M Graham Clark Downtown Airport (13 nm NE)
KHRO - Boone County Airport (20 nm SE)
 
Loc | Ops | Rwys | IFR | FBO | Links
Com | Nav | Svcs | Stats | Notes

Branson Jet Center
AirBoss

 
Area around MU01 (Dogwood Canyon Heliport)
 
Road maps at: MapQuest Bing Google
 
Aerial photo
No photo
 
Sectional chart

 
Airport distance calculator
Flying to Dogwood Canyon Heliport? Find the distance to fly.

From to MU01

Sunrise and sunset
Times for 11-Aug-2020
 Local
(UTC-5)
 Zulu
(UTC)
Morning civil twilight06:0211:02
Sunrise06:3011:30
Sunset20:0801:08
Evening civil twilight20:3501:35

Current date and time
Zulu (UTC)  12-Aug-2020 00:39:26
Local (UTC-5)  11-Aug-2020 19:39:26
 
METAR
KFWB 
12nm N 
120015Z AUTO 14003KT 10SM CLR 23/23 A3002 RMK AO2
KBBG 
13nm E 
112345Z 11005KT 10SM BKN150 22/20 A3001
KHRO 
20nm SE 
112353Z AUTO 16005KT 10SM CLR 21/20 A2999 RMK AO2 SLP144 60020 T02110200 10217 20200 56024 $
TAF
KBBG 
13nm E 
111911Z 1119/1218 18004KT P6SM VCTS SCT060CB BKN150 TEMPO 1120/1122 4SM -TSRA BKN020CB OVC050 FM120200 21006KT P6SM BKN100 PROB30 1215/1218 4SM TSRA BR BKN080CB BKN090 BKN100
NOTAMs
Click for the latest NOTAMs
NOTAMs are issued by the DoD/FAA and will open in a separate window not controlled by AirNav.

 

 
 

Would you like to see your business listed on this page?

 If your business provides an interesting product or service to pilots, flight crews, aircraft, or users of the Dogwood Canyon Heliport, you should consider listing it here.  To start the listing process, click on the button below
 
Add a business
 

Other Pages about Dogwood Canyon Heliport

Update a link
 
Copyright © AirNav, LLC. All rights reserved. Privacy Policy  Contact